Погода в Даугавпилсе

Погода в Даугавпилсе : погода сейчас, прогноз погоды и архив. Всё, что Вы хотите узнать о погоде в Даугавпилсе!

Поиск расширенной информации на нашем сайте:

Другие новости

Новости СМИ2

Главная страница сайта

Новости сайта

03.07.2017

Напоминаем, что на нашем специализированном сайте Метеоцентр.Азия вы можете получить высокодетализированные автоматические прогнозы погоды по пунктам России, СНГ и мира в авиационном формате (включающие направление и скорость ветра, видимость, явления погоды, количество и форму облачности, нижнюю и верхнюю границу облачности).


Погода в Даугавпилсе - сегодня

Время (UTC), дата Ветер
(°,м/с) 
Видим.   Явления Облачность Т
(°С)
Тd
(°С)
f(%) Тe
(°С)
Pmin
(гПа)
dP
(гПа)
Po
(мм)
O2
(г/м3)
Тmin Tmax R s Состояние
почвы
18 17.08.17 тихо () -1  н/о    н/о 
+18.9 +17.3 90 +32  1019.9  0.1  756  281           
21 17.08.17 тихо () -0  н/о    н/о 
+17.8 +16.8 94 +29  1020.4  0.5  757  282           
00 18.08.17 тихо () -1  н/о    н/о 
+17.5 +15.2 86 +26  1020.2  -0.2  756  283           
03 18.08.17 020 (С) 1-1  н/о    н/о 
+15.8 +15.1 96 +26  1019.7  -0.5  756  285           
06 18.08.17 //0 (С) //  н/о    н/о 
  -0.2  756  305           
09 18.08.17 110 (В) 3-4  н/о    н/о 
+23.8 +17.3 67 +37  1018.2  -1  755  276           
12 18.08.17 170 (Ю) 3-6  н/о    н/о 
+25.6 +19.1 67 +42  1017  -1.1  754  273           
15 18.08.17 220 (ЮЗ) 1-3  н/о    н/о 
+25.1 +19.5 71 +42  1016.5  -0.5  754  274           
21 18.08.17 050 (СВ) 1-1  н/о    н/о 
+17.1 +17 99 +31  1016.6  -0.3  754  282           
00 19.08.17 040 (СВ) 1-2  н/о    н/о 
+17.4 +17.2 99 +32  1015.4  -1.1  753  281           
03 19.08.17 020 (С) 1-1  н/о    н/о 
+17 +16.6 97 +29  1014.8  -0.7  752  282           
06 19.08.17 150 (ЮВ) 2-4  н/о    н/о 
+21.6 +17.1 76 +34  1013.8  -0.7  752  277           
09 19.08.17 150 (ЮВ) 4-7  н/о    н/о 
+26.7 +18.3 60 +42  1013.1  -0.6  751  272           
12 19.08.17 160 (Ю) 5-10  н/о    н/о 
+29.7 +17.8 49 +44  1012.4  -0.5  751  269           
15 19.08.17 150 (ЮВ) 3-6  н/о    н/о 
+29 +17.1 49 +42  1011.2  -1.2  750  270           
18 19.08.17 //0 (С) //  н/о    н/о 
+20.9 +18.1 84 +35  1014.6  752  277           
21 19.08.17 230 (ЮЗ) 1-2  н/о    н/о 
+18 +17.3 96 +32  1016.3  1.5  754  281           
00 20.08.17 280 (З) 1-2  н/о    н/о 
+16.4 +15.9 97 +28  1017.5  1.1  754  283           
03 20.08.17 280 (З) 1-1  н/о    н/о 
+15.7 +15.1 96 +26  1018.2  0.5  755  284           
06 20.08.17 290 (З) 1-1  н/о    н/о 
+16.1 +15.2 94 +26  1019.2  756  284           
09 20.08.17 340 (С) 1-2  н/о    н/о 
+17.2 +15.3 89 +28  1019  -0.2  755  283           
12 20.08.17 310 (СЗ) 2-4  н/о    н/о 
+16.8 +14.8 88 +26  1018.7  -0.3  755  284           
15 20.08.17 340 (С) 2-4  н/о    н/о 
+15.4 +12.9 85 +21  1017.4  -1.4  754  285           
18 20.08.17 310 (СЗ) 2-4  н/о    н/о 
+14.3 +13.2 93 +21  1016.8  -0.6  754  286           
21 20.08.17 340 (С) 2-4  н/о    н/о 
+12.3 +10.8 91 +15  1016.3  -0.5  753  288           
Время (UTC), дата Ветер
(°,м/с) 
Видим.   Явления Облачность Т
(°С)
Тd
(°С)
f(%) Тe
(°С)
Pmin
(гПа)
dP
(гПа)
Po
(мм)
O2
(г/м3)
Тmin Tmax R s Состояние
почвы

Для получения пояснительной информации подведите курсор к названию столбца.

ПОГОДА в Даугавпилсе - архив

Всё, что Вы хотите узнать о погоде в Даугавпилсе - удобно и подробно!

Выберите нужную дату (начиная с 1 января 2015* года) и нажмите кнопку "Найти".
Будут отображены архивные сводки погоды по пункту Даугавпилс, начиная с указанной даты.


Отображать данные в формате CSV (для использования в таблицах Excel)


Внимание! Наш архив погоды предназначен исключительно для личного некоммерческого использования в познавательных целях. Если Вам необходимы официальные справки о состоянии погоды (для производственных, юридических, коммерческих и т.п. целей), обращайтесь в органы Росгидромета.

*Примечание: данная дата относится к архиву по метеостанциям СССР (Россия, СНГ, Балтия).
Архив по метеостанциям Зарубежной Европы и Азии (кроме Китая) хранится 10 дней, по другим регионам земного шара (Китай, Африка, Америка, Австралия, Океания) - 1 день.

Даугавпилс - район местоположения метеостанции


Название, широта, долгота, высота метеостанции:
Даугавпилс 55.9°ш. 26.6°д. 122 м над ур. моря [Латвия]

Дополнительная информация

В oтличие oт бoльшинства пoгoдных сайтoв мы публикуем пoдрoбную метеoинфoрмацию в детальнoм прoфессиoнальнoм фoрмате.

Характеристики температуры и влажнoсти вoздуха измеряются на высoте 2 м в тени вдали oт зданий и деревьев.
Скoрoсть ветра измеряется на высoте 10 м (на урoвне рoста челoвека скoрoсть ветра ниже в 1.5-2 раза). Если метеoстанция нахoдится в гoрoде или в лесу, тo скoрoсть ветра занижена на 2-4 м/с пo сравнению с oткрытым местoм. Скoрoсть ветра над акватoриями крупных рек и oзёр, а также на вершинах хoлмoв на 2-5 м/с выше, чем в oбычных услoвиях.
Атмoсфернoе давление в разных тoчках местнoсти мoжет значительнo oтличаться oт давления на метеoстанции, в зависимoсти oт услoвий рельефа (при пoдъёме на 10 м давление пoнижается примернo на 1 мм рт.ст.).